Météo par heure à Juárez

Ce jour, 20 Juin, Dimanche

Heure Température Précipitation Vent Pression Humidité
00:00 +28°C° 0 mm 2 m/s 723 mmHg 60%
01:00 +28°C° 0 mm 2 m/s 723 mmHg 60%
02:00 +28°C° 0 mm 2 m/s 722 mmHg 60%
03:00 +28°C° 0 mm 2 m/s 723 mmHg 61%
04:00 +27°C° 0 mm 1 m/s 723 mmHg 61%
05:00 +27°C° 0 mm 1 m/s 723 mmHg 62%
06:00 +28°C° 0 mm 1 m/s 723 mmHg 60%
07:00 +29°C° 0 mm 1 m/s 724 mmHg 58%
08:00 +29°C° 0 mm 1 m/s 724 mmHg 56%
09:00 +30°C° 0 mm 1 m/s 724 mmHg 53%
10:00 +31°C° 0 mm 1 m/s 723 mmHg 49%
11:00 +32°C° 0 mm 1 m/s 723 mmHg 46%
12:00 +34°C° 0 mm 1 m/s 723 mmHg 41%
13:00 +36°C° 0 mm 1 m/s 722 mmHg 37%
14:00 +37°C° 0 mm 1 m/s 722 mmHg 32%
15:00 +37°C° 0.1 mm 1 m/s 721 mmHg 34%
16:00 +37°C° 0.1 mm 2 m/s 721 mmHg 36%
17:00 +36°C° 0.1 mm 2 m/s 721 mmHg 38%
18:00 +35°C° 0.2 mm 2 m/s 721 mmHg 44%
19:00 +32°C° 0.2 mm 2 m/s 721 mmHg 50%
20:00 +31°C° 0.2 mm 2 m/s 721 mmHg 55%
21:00 +30°C° 0 mm 2 m/s 721 mmHg 59%
22:00 +30°C° 0 mm 2 m/s 721 mmHg 63%
23:00 +29°C° 0 mm 2 m/s 721 mmHg 67%

Demain, 21 Juin, Lundi

Heure Température Précipitation Vent Pression Humidité
00:00 +29°C° 0 mm 2 m/s 721 mmHg 70%
01:00 +28°C° 0 mm 2 m/s 721 mmHg 72%
02:00 +28°C° 0 mm 2 m/s 720 mmHg 74%
03:00 +27°C° 0 mm 2 m/s 720 mmHg 76%
04:00 +27°C° 0 mm 2 m/s 721 mmHg 78%
05:00 +27°C° 0 mm 2 m/s 721 mmHg 80%
06:00 +28°C° 0 mm 2 m/s 721 mmHg 72%
07:00 +30°C° 0 mm 2 m/s 722 mmHg 65%
08:00 +32°C° 0 mm 2 m/s 722 mmHg 57%
09:00 +35°C° 0 mm 1 m/s 722 mmHg 50%
10:00 +37°C° 0 mm 1 m/s 722 mmHg 42%
11:00 +40°C° 0 mm 1 m/s 722 mmHg 35%
12:00 +41°C° 0 mm 1 m/s 721 mmHg 31%
13:00 +42°C° 0 mm 1 m/s 721 mmHg 27%
14:00 +44°C° 0 mm 1 m/s 720 mmHg 24%
15:00 +43°C° 0 mm 2 m/s 720 mmHg 24%
16:00 +44°C° 0 mm 3 m/s 719 mmHg 24%
17:00 +45°C° 0 mm 5 m/s 719 mmHg 24%
18:00 +41°C° 0 mm 5 m/s 720 mmHg 37%
19:00 +37°C° 0 mm 5 m/s 721 mmHg 50%
20:00 +33°C° 0 mm 5 m/s 721 mmHg 63%
21:00 +32°C° 0 mm 4 m/s 722 mmHg 67%
22:00 +32°C° 0 mm 4 m/s 722 mmHg 71%
23:00 +30°C° 0 mm 3 m/s 722 mmHg 75%

Après-demain, 22 Juin, Mardi

Heure Température Précipitation Vent Pression Humidité
00:00 +29°C° 0.1 mm 2 m/s 722 mmHg 78%
01:00 +29°C° 0.1 mm 2 m/s 722 mmHg 80%
02:00 +28°C° 0.1 mm 1 m/s 722 mmHg 82%
03:00 +27°C° 1.7 mm 2 m/s 723 mmHg 80%
04:00 +26°C° 1.7 mm 3 m/s 723 mmHg 78%
05:00 +25°C° 1.7 mm 4 m/s 724 mmHg 77%
06:00 +27°C° 0 mm 4 m/s 724 mmHg 72%
07:00 +28°C° 0 mm 4 m/s 725 mmHg 67%
08:00 +29°C° 0 mm 4 m/s 725 mmHg 62%
09:00 +31°C° 0 mm 3 m/s 725 mmHg 57%
10:00 +33°C° 0 mm 3 m/s 725 mmHg 51%
11:00 +35°C° 0 mm 2 m/s 725 mmHg 46%
12:00 +35°C° 0 mm 3 m/s 725 mmHg 45%
13:00 +36°C° 0 mm 3 m/s 725 mmHg 44%
14:00 +37°C° 0 mm 4 m/s 724 mmHg 43%
15:00 +36°C° 0 mm 4 m/s 724 mmHg 46%
16:00 +35°C° 0 mm 3 m/s 724 mmHg 48%
17:00 +35°C° 0 mm 3 m/s 724 mmHg 51%
18:00 +33°C° 0.4 mm 3 m/s 724 mmHg 57%
19:00 +31°C° 0.4 mm 2 m/s 724 mmHg 63%
20:00 +30°C° 0.4 mm 2 m/s 724 mmHg 69%
21:00 +29°C° 0.5 mm 2 m/s 725 mmHg 72%
22:00 +29°C° 0.5 mm 1 m/s 725 mmHg 74%
23:00 +28°C° 0.5 mm 1 m/s 725 mmHg 76%

23 Juin, Mercredi

Heure Température Précipitation Vent Pression Humidité
00:00 +28°C° 0.1 mm 1 m/s 725 mmHg 77%
01:00 +28°C° 0.1 mm 1 m/s 724 mmHg 78%
02:00 +28°C° 0.1 mm 1 m/s 724 mmHg 79%
03:00 +27°C° 0 mm 1 m/s 724 mmHg 80%
04:00 +27°C° 0 mm 1 m/s 724 mmHg 80%
05:00 +27°C° 0 mm 1 m/s 724 mmHg 81%
06:00 +28°C° 0 mm 1 m/s 725 mmHg 75%
07:00 +30°C° 0 mm 2 m/s 725 mmHg 70%
08:00 +31°C° 0 mm 2 m/s 726 mmHg 64%
09:00 +34°C° 0 mm 3 m/s 726 mmHg 57%
10:00 +36°C° 0 mm 3 m/s 726 mmHg 50%
11:00 +37°C° 0 mm 4 m/s 725 mmHg 43%
12:00 +38°C° 0.1 mm 4 m/s 725 mmHg 38%
13:00 +40°C° 0.1 mm 5 m/s 724 mmHg 34%
14:00 +41°C° 0.1 mm 5 m/s 724 mmHg 30%
15:00 +40°C° 0.1 mm 5 m/s 724 mmHg 33%
16:00 +39°C° 0.1 mm 5 m/s 724 mmHg 35%
17:00 +37°C° 0.1 mm 5 m/s 723 mmHg 38%
18:00 +35°C° 0.2 mm 6 m/s 724 mmHg 47%
19:00 +33°C° 0.2 mm 6 m/s 725 mmHg 56%
20:00 +29°C° 0.2 mm 6 m/s 725 mmHg 65%
21:00 +29°C° 0.1 mm 5 m/s 726 mmHg 69%
22:00 +28°C° 0.1 mm 4 m/s 726 mmHg 72%
23:00 +28°C° 0.1 mm 3 m/s 726 mmHg 76%

24 Juin, Jeudi

Heure Température Précipitation Vent Pression Humidité
00:00 +27°C° 0 mm 3 m/s 726 mmHg 78%
01:00 +27°C° 0 mm 3 m/s 725 mmHg 79%
02:00 +26°C° 0 mm 3 m/s 725 mmHg 80%
03:00 +26°C° 0 mm 2 m/s 725 mmHg 82%
04:00 +26°C° 0 mm 2 m/s 725 mmHg 84%
05:00 +25°C° 0 mm 2 m/s 726 mmHg 85%
06:00 +27°C° 0 mm 3 m/s 726 mmHg 78%
07:00 +29°C° 0 mm 3 m/s 727 mmHg 71%
08:00 +30°C° 0 mm 4 m/s 727 mmHg 64%
09:00 +33°C° 0 mm 4 m/s 727 mmHg 56%
10:00 +35°C° 0 mm 5 m/s 726 mmHg 48%
11:00 +37°C° 0 mm 5 m/s 726 mmHg 40%
12:00 +39°C° 0 mm 5 m/s 726 mmHg 36%
13:00 +40°C° 0 mm 6 m/s 725 mmHg 32%
14:00 +42°C° 0 mm 6 m/s 724 mmHg 27%
15:00 +41°C° 0 mm 6 m/s 724 mmHg 28%
16:00 +41°C° 0 mm 7 m/s 724 mmHg 28%
17:00 +40°C° 0 mm 7 m/s 724 mmHg 28%
18:00 +38°C° 0 mm 7 m/s 724 mmHg 38%
19:00 +34°C° 0 mm 8 m/s 725 mmHg 48%
20:00 +32°C° 0 mm 8 m/s 725 mmHg 58%
21:00 +30°C° 0 mm 7 m/s 725 mmHg 63%
22:00 +29°C° 0 mm 6 m/s 726 mmHg 68%
23:00 +28°C° 0 mm 5 m/s 726 mmHg 73%

25 Juin, Vendredi

Heure Température Précipitation Vent Pression Humidité
00:00 +28°C° 0 mm 5 m/s 725 mmHg 75%
01:00 +27°C° 0 mm 4 m/s 725 mmHg 77%
02:00 +27°C° 0 mm 4 m/s 725 mmHg 78%
03:00 +26°C° 0 mm 3 m/s 725 mmHg 80%
04:00 +26°C° 0 mm 3 m/s 725 mmHg 81%
05:00 +25°C° 0 mm 2 m/s 725 mmHg 82%
06:00 +27°C° 0 mm 2 m/s 725 mmHg 75%
07:00 +28°C° 0 mm 3 m/s 725 mmHg 68%
08:00 +30°C° 0 mm 3 m/s 726 mmHg 61%
09:00 +33°C° 0 mm 3 m/s 726 mmHg 53%
10:00 +35°C° 0 mm 4 m/s 725 mmHg 44%
11:00 +39°C° 0 mm 5 m/s 725 mmHg 35%
12:00 +40°C° 0 mm 5 m/s 724 mmHg 30%
13:00 +41°C° 0 mm 6 m/s 724 mmHg 24%
14:00 +43°C° 0 mm 7 m/s 723 mmHg 19%
15:00 +43°C° 0 mm 7 m/s 723 mmHg 20%
16:00 +41°C° 0 mm 7 m/s 723 mmHg 21%
17:00 +40°C° 0 mm 8 m/s 722 mmHg 23%
18:00 +38°C° 0 mm 8 m/s 723 mmHg 32%
19:00 +34°C° 0 mm 7 m/s 723 mmHg 41%
20:00 +32°C° 0 mm 7 m/s 724 mmHg 51%
21:00 +30°C° 0 mm 6 m/s 724 mmHg 56%
22:00 +29°C° 0 mm 6 m/s 724 mmHg 60%
23:00 +28°C° 0 mm 5 m/s 724 mmHg 65%
Voir plus

Nous avons besoin de votre consentement

Meteoprog et ses fournisseurs de services peuvent stocker et accéder à des données personnelles telles que des cookies, des identifiants d'appareils ou d'autres technologies similaires sur votre appareil et traiter ces données pour personnaliser le contenu et les publicités, ainsi que pour fournir des fonctionnalités de médias sociaux et analyser le trafic.

  • Stocker et/ou accéder à des informations sur votre appareil

    Des cookies, des identifiants d'appareils ou d'autres informations peuvent être stockés ou accessibles sur votre appareil aux fins indiquées ci-dessus.

  • Annonces et contenus personnalisés, mesure des annonces et des contenus, connaissance de l'audience et développement de produits

    Les annonces et le contenu peuvent être personnalisés en fonction d'un profil. D'autres données peuvent être ajoutées pour mieux personnaliser les annonces et le contenu. Les performances des publicités et du contenu peuvent être mesurées. Il est possible d'obtenir des informations sur le public qui a vu les publicités et le contenu. Ces données peuvent être utilisées pour développer ou améliorer l'expérience de l'utilisateur, les systèmes et les logiciels.

En cliquant sur "J'accepte", vous autorisez l'utilisation de cookies, des identifiants d'appareils, des balises web ou d'autres technologies similaires. Vos paramètres peuvent être modifiés dans le navigateur de votre appareil.

Dans certains cas, des intérêts légitimes peuvent être invoqués plutôt qu'un consentement. Vous pouvez en savoir plus à ce sujet dans notre Politique de confidentialité et de cookies.